When you browse on this site, cookies collect data to enhance your experience and personalize the content and advertising you see.
Visit our Privacy Policy to learn more. By continuing to use the site, you agree to this use of cookies and data.
  • In Germany
  • List of Countries
  • For 7 days
  • Water Temperature
  • Weather Map
  • Weather Widgets
  • user-avatar
    Login

    Hourly Weather Kozly

    Today, 18 August, Sunday

    Time Temperature Precipitation Wind Pressure Humidity
    00:00 +18°C° 0 mm 2 mps 751 mmHg 72%
    01:00 +18°C° 0 mm 2 mps 750 mmHg 71%
    02:00 +18°C° 0 mm 2 mps 750 mmHg 71%
    03:00 +17°C° 0 mm 2 mps 750 mmHg 72%
    04:00 +17°C° 0 mm 2 mps 750 mmHg 72%
    05:00 +18°C° 0 mm 2 mps 750 mmHg 71%
    06:00 +19°C° 0 mm 2 mps 750 mmHg 69%
    07:00 +20°C° 0 mm 3 mps 750 mmHg 67%
    08:00 +22°C° 0 mm 3 mps 750 mmHg 61%
    09:00 +25°C° 0 mm 3 mps 750 mmHg 54%
    10:00 +27°C° 0 mm 3 mps 750 mmHg 48%
    11:00 +27°C° 0 mm 4 mps 749 mmHg 46%
    12:00 +28°C° 0 mm 4 mps 749 mmHg 45%
    13:00 +29°C° 0 mm 4 mps 749 mmHg 43%
    14:00 +28°C° 0 mm 4 mps 749 mmHg 46%
    15:00 +28°C° 0 mm 4 mps 749 mmHg 48%
    16:00 +28°C° 0 mm 4 mps 749 mmHg 50%
    17:00 +26°C° 0 mm 4 mps 749 mmHg 52%
    18:00 +25°C° 0 mm 3 mps 749 mmHg 54%
    19:00 +24°C° 0 mm 3 mps 749 mmHg 56%
    20:00 +22°C° 0 mm 3 mps 749 mmHg 61%
    21:00 +22°C° 0 mm 3 mps 749 mmHg 66%
    22:00 +21°C° 0 mm 3 mps 749 mmHg 72%
    23:00 +21°C° 0.1 mm 3 mps 749 mmHg 75%

    Tomorrow, 19 August, Monday

    Time Temperature Precipitation Wind Pressure Humidity
    00:00 +21°C° 0.1 mm 3 mps 749 mmHg 79%
    01:00 +20°C° 0.1 mm 3 mps 749 mmHg 83%
    02:00 +20°C° 0 mm 3 mps 749 mmHg 84%
    03:00 +20°C° 0 mm 3 mps 749 mmHg 85%
    04:00 +20°C° 0 mm 3 mps 749 mmHg 86%
    05:00 +21°C° 0.2 mm 3 mps 750 mmHg 83%
    06:00 +22°C° 0.2 mm 3 mps 750 mmHg 81%
    07:00 +24°C° 0.2 mm 3 mps 751 mmHg 79%
    08:00 +24°C° 0.2 mm 2 mps 751 mmHg 76%
    09:00 +25°C° 0.2 mm 2 mps 751 mmHg 74%
    10:00 +26°C° 0.2 mm 2 mps 752 mmHg 72%
    11:00 +27°C° 0.1 mm 2 mps 752 mmHg 68%
    12:00 +27°C° 0.1 mm 2 mps 752 mmHg 63%
    13:00 +28°C° 0.1 mm 1 mps 752 mmHg 59%
    14:00 +27°C° 1 mm 2 mps 752 mmHg 64%
    15:00 +26°C° 1 mm 3 mps 752 mmHg 70%
    16:00 +25°C° 1 mm 3 mps 752 mmHg 75%
    17:00 +24°C° 0.6 mm 3 mps 752 mmHg 78%
    18:00 +23°C° 0.6 mm 2 mps 752 mmHg 82%
    19:00 +21°C° 0.6 mm 2 mps 753 mmHg 85%
    20:00 +21°C° 0 mm 1 mps 753 mmHg 86%
    21:00 +21°C° 0 mm 1 mps 754 mmHg 88%
    22:00 +20°C° 0 mm 1 mps 754 mmHg 89%
    23:00 +20°C° 0 mm 1 mps 754 mmHg 90%

    Day after tomorrow, 20 August, Tuesday

    Time Temperature Precipitation Wind Pressure Humidity
    00:00 +19°C° 0 mm 1 mps 755 mmHg 91%
    01:00 +18°C° 0 mm 2 mps 755 mmHg 92%
    02:00 +19°C° 0 mm 1 mps 755 mmHg 91%
    03:00 +18°C° 0 mm 1 mps 756 mmHg 91%
    04:00 +18°C° 0 mm 1 mps 756 mmHg 91%
    05:00 +19°C° 0 mm 1 mps 756 mmHg 87%
    06:00 +20°C° 0 mm 1 mps 756 mmHg 83%
    07:00 +21°C° 0 mm 1 mps 757 mmHg 78%
    08:00 +23°C° 0 mm 1 mps 757 mmHg 69%
    09:00 +24°C° 0 mm 1 mps 757 mmHg 60%
    10:00 +26°C° 0 mm 1 mps 757 mmHg 52%
    11:00 +26°C° 0 mm 1 mps 757 mmHg 48%
    12:00 +27°C° 0 mm 1 mps 757 mmHg 44%
    13:00 +28°C° 0 mm 1 mps 757 mmHg 40%
    14:00 +28°C° 0 mm 1 mps 757 mmHg 40%
    15:00 +28°C° 0 mm 1 mps 757 mmHg 40%
    16:00 +28°C° 0 mm 1 mps 757 mmHg 41%
    17:00 +26°C° 0 mm 1 mps 757 mmHg 45%
    18:00 +25°C° 0 mm 2 mps 757 mmHg 49%
    19:00 +24°C° 0 mm 2 mps 757 mmHg 52%
    20:00 +23°C° 0 mm 2 mps 757 mmHg 54%
    21:00 +23°C° 0 mm 2 mps 757 mmHg 56%
    22:00 +21°C° 0 mm 3 mps 758 mmHg 58%
    23:00 +21°C° 0 mm 3 mps 757 mmHg 59%

    21 August, Wednesday

    Time Temperature Precipitation Wind Pressure Humidity
    00:00 +21°C° 0 mm 3 mps 757 mmHg 59%
    01:00 +21°C° 0 mm 3 mps 757 mmHg 60%
    02:00 +20°C° 0 mm 3 mps 757 mmHg 62%
    03:00 +20°C° 0 mm 3 mps 757 mmHg 64%
    04:00 +20°C° 0 mm 4 mps 756 mmHg 66%
    05:00 +19°C° 0.4 mm 4 mps 756 mmHg 71%
    06:00 +19°C° 0.4 mm 4 mps 756 mmHg 76%
    07:00 +19°C° 0.4 mm 4 mps 756 mmHg 81%
    08:00 +18°C° 3.2 mm 4 mps 756 mmHg 85%
    09:00 +18°C° 3.2 mm 4 mps 756 mmHg 89%
    10:00 +18°C° 3.2 mm 4 mps 756 mmHg 93%
    11:00 +16°C° 1.2 mm 5 mps 756 mmHg 92%
    12:00 +16°C° 1.2 mm 6 mps 757 mmHg 91%
    13:00 +15°C° 1.2 mm 7 mps 757 mmHg 90%
    14:00 +15°C° 0.2 mm 6 mps 757 mmHg 89%
    15:00 +15°C° 0.2 mm 5 mps 757 mmHg 89%
    16:00 +15°C° 0.2 mm 4 mps 758 mmHg 88%
    17:00 +16°C° 0 mm 3 mps 758 mmHg 89%
    18:00 +14°C° 0 mm 3 mps 759 mmHg 90%
    19:00 +14°C° 0 mm 3 mps 759 mmHg 91%
    20:00 +15°C° 0 mm 2 mps 759 mmHg 92%
    21:00 +15°C° 0 mm 2 mps 760 mmHg 93%
    22:00 +14°C° 0 mm 2 mps 760 mmHg 94%
    23:00 +14°C° 0 mm 2 mps 760 mmHg 94%

    22 August, Thursday

    Time Temperature Precipitation Wind Pressure Humidity
    00:00 +14°C° 0 mm 2 mps 760 mmHg 95%
    01:00 +14°C° 0 mm 2 mps 761 mmHg 95%
    02:00 +13°C° 0 mm 2 mps 761 mmHg 95%
    03:00 +13°C° 0 mm 2 mps 760 mmHg 95%
    04:00 +13°C° 0 mm 2 mps 760 mmHg 95%
    05:00 +14°C° 0 mm 2 mps 760 mmHg 91%
    06:00 +15°C° 0 mm 2 mps 761 mmHg 86%
    07:00 +15°C° 0 mm 2 mps 761 mmHg 82%
    08:00 +17°C° 0 mm 2 mps 761 mmHg 74%
    09:00 +18°C° 0 mm 2 mps 761 mmHg 67%
    10:00 +20°C° 0 mm 2 mps 761 mmHg 59%
    11:00 +21°C° 0 mm 2 mps 761 mmHg 56%
    12:00 +23°C° 0 mm 2 mps 760 mmHg 52%
    13:00 +23°C° 0 mm 2 mps 760 mmHg 48%
    14:00 +23°C° 0 mm 2 mps 760 mmHg 48%
    15:00 +23°C° 0 mm 2 mps 760 mmHg 48%
    16:00 +23°C° 0 mm 2 mps 760 mmHg 48%
    17:00 +21°C° 0 mm 2 mps 760 mmHg 54%
    18:00 +19°C° 0 mm 2 mps 760 mmHg 59%
    19:00 +19°C° 0 mm 1 mps 760 mmHg 65%
    20:00 +18°C° 0 mm 1 mps 760 mmHg 68%
    21:00 +16°C° 0 mm 1 mps 760 mmHg 71%
    22:00 +15°C° 0 mm 1 mps 760 mmHg 73%
    23:00 +15°C° 0 mm 1 mps 760 mmHg 76%

    23 August, Friday

    Time Temperature Precipitation Wind Pressure Humidity
    00:00 +15°C° 0 mm 1 mps 760 mmHg 78%
    01:00 +14°C° 0 mm 2 mps 760 mmHg 80%
    02:00 +14°C° 0 mm 2 mps 760 mmHg 82%
    03:00 +13°C° 0 mm 1 mps 760 mmHg 85%
    04:00 +13°C° 0 mm 1 mps 760 mmHg 87%
    05:00 +14°C° 0 mm 1 mps 760 mmHg 82%
    06:00 +16°C° 0 mm 1 mps 760 mmHg 76%
    07:00 +18°C° 0 mm 1 mps 761 mmHg 71%
    08:00 +20°C° 0 mm 1 mps 761 mmHg 65%
    09:00 +21°C° 0 mm 1 mps 761 mmHg 59%
    10:00 +23°C° 0 mm 1 mps 761 mmHg 52%
    11:00 +24°C° 0 mm 1 mps 761 mmHg 49%
    12:00 +24°C° 0 mm 2 mps 760 mmHg 45%
    13:00 +25°C° 0 mm 2 mps 760 mmHg 42%
    14:00 +24°C° 0 mm 2 mps 760 mmHg 42%
    15:00 +24°C° 0 mm 2 mps 760 mmHg 43%
    16:00 +24°C° 0 mm 3 mps 760 mmHg 43%
    17:00 +21°C° 0 mm 3 mps 760 mmHg 48%
    18:00 +20°C° 0 mm 2 mps 760 mmHg 54%
    19:00 +18°C° 0 mm 2 mps 760 mmHg 59%
    20:00 +17°C° 0 mm 2 mps 760 mmHg 61%
    21:00 +18°C° 0 mm 1 mps 761 mmHg 62%
    22:00 +16°C° 0 mm 1 mps 761 mmHg 64%
    23:00 +16°C° 0 mm 1 mps 761 mmHg 65%
    Show more